User: anonymous   Login
Location: Unspecified
(0.0000°N, 0.0000°E)
Time: 17:18:38
(UTC+00:00)
Language:

GOMX 1 - Orbit

View from above orbital plane
View from above orbital plane
View from above satellite
View from above satellite

Ground track
Ground track

The orbit data is extracted from the following two-line orbital elements,

1 39423U 13066H   18146.44567706  .00000082  00000-0  25400-4 0  9991
2 39423  97.7265 112.2132 0177070  85.2826 276.8576 14.52951549239071
Epoch (UTC): 26 May 2018 10:41:46
Eccentricity: 0.0177070
inclination: 97.7265°
perigee height: 590 km
apogee height: 841 km
right ascension of ascending node: 112.2132°
argument of perigee: 85.2826°
revolutions per day: 14.52951549
mean anomaly at epoch: 276.8576°
orbit number at epoch: 23907

The dashed part of the orbit path shows where the satellite is in the earth's shadow,  

DLR